Location: Philomena
(55.1756°N, 111.6233°W)
Time: 09:17:09
(UTC+00:00)

N. Korean satellite - Visible Passes

Search period start: 30 November 2021 00:00
Search period end: 10 December 2021 00:00
Orbit: 447 x 495 km, 97.3° (Epoch: 29 November)

Date Brightness Start Highest point End Pass type
(mag) Time Alt. Az. Time Alt. Az. Time Alt. Az.
30 Nov 8.1 00:09:21 10° S 00:12:44 40° W 00:16:06 10° NNW visible
30 Nov 6.3 13:00:04 10° NNE 13:03:31 88° ESE 13:06:54 10° SSW visible
30 Nov 8.3 14:34:44 10° NNW 14:36:09 12° NW 14:37:34 10° W visible
01 Dec 7.7 12:31:41 10° NNE 12:34:58 42° E 12:38:11 10° S visible
01 Dec 7.7 14:05:21 10° NNW 14:07:57 21° WNW 14:10:32 10° WSW visible
02 Dec 9.6 00:46:41 10° SW 00:49:12 18° W 00:51:42 10° NW visible
02 Dec 9.0 12:03:35 10° NE 12:06:18 22° E 12:08:58 10° SE visible
02 Dec 6.9 13:36:27 10° N 13:39:38 37° WNW 13:42:47 10° SW visible
03 Dec 8.5 00:17:15 10° SSW 00:20:30 33° W 00:23:43 10° NNW visible
03 Dec 9.9 11:36:15 10° ENE 11:37:31 12° E 11:38:44 10° ESE visible
03 Dec 6.2 13:07:47 10° NNE 13:11:12 76° WNW 13:14:34 10° SSW visible
03 Dec 8.5 14:43:07 10° NW 14:43:45 10° NW 14:44:25 10° WNW visible
03 Dec 6.9 23:48:23 10° S 23:51:55 68° WSW 23:55:23 10° NNW visible
04 Dec 7.2 12:39:18 10° NNE 12:42:39 51° E 12:45:57 10° S visible
04 Dec 7.9 14:13:11 10° NNW 14:15:33 18° WNW 14:17:54 10° WSW visible
05 Dec 9.7 00:54:48 10° SW 00:56:56 15° W 00:59:04 10° NW visible
05 Dec 8.6 12:11:05 10° NE 12:13:59 25° E 12:16:52 10° SSE visible
05 Dec 7.1 13:44:10 10° N 13:47:13 31° WNW 13:50:15 10° SW visible
06 Dec 8.8 00:25:07 10° SSW 00:28:10 28° W 00:31:14 10° NW visible
06 Dec 9.6 11:43:22 10° NE 11:45:12 14° E 11:47:01 10° ESE visible
06 Dec 6.3 13:15:25 10° N 13:18:47 62° WNW 13:22:08 10° SSW visible
06 Dec 7.3 23:56:05 10° S 23:59:32 55° W 00:02:57 10° NNW visible
07 Dec 6.8 12:46:52 10° NNE 12:50:14 63° ESE 12:53:36 10° S visible
07 Dec 8.1 14:20:59 10° NNW 14:23:03 15° WNW 14:25:07 10° W visible
08 Dec 9.8 01:02:57 10° WSW 01:04:36 13° W 01:06:13 10° WNW visible
08 Dec 8.3 12:18:31 10° NNE 12:21:35 30° E 12:24:37 10° SSE visible
08 Dec 7.3 13:51:49 10° N 13:54:44 26° WNW 13:57:37 10° WSW visible
09 Dec 9.1 00:32:55 10° SSW 00:35:46 23° W 00:38:37 10° NW visible
09 Dec 9.4 11:50:35 10° NE 11:52:48 16° E 11:55:00 10° SE visible
09 Dec 6.5 13:22:58 10° N 13:26:17 51° WNW 13:29:35 10° SSW visible
